Year,Month,Day,Hour,Minute,Value (Times are PST for temperature in C)
2011,07,05,00,00,11.50
2011,07,05,00,01,11.50
2011,07,05,00,02,11.40
2011,07,05,00,03,11.40
2011,07,05,00,04,11.40
2011,07,05,00,05,11.40
2011,07,05,00,06,11.40
2011,07,05,00,07,11.40
2011,07,05,00,08,11.40
2011,07,05,00,09,11.40
2011,07,05,00,10,11.40
2011,07,05,00,11,11.40
2011,07,05,00,12,11.30
2011,07,05,00,13,11.30
2011,07,05,00,14,11.30
2011,07,05,00,15,11.30
2011,07,05,00,16,11.30
2011,07,05,00,17,11.30
2011,07,05,00,18,11.30
2011,07,05,00,19,11.30
2011,07,05,00,20,11.30
2011,07,05,00,21,11.30
2011,07,05,00,22,11.30
2011,07,05,00,23,11.30
2011,07,05,00,24,11.30
2011,07,05,00,25,11.30
2011,07,05,00,26,11.30
2011,07,05,00,27,11.30
2011,07,05,00,28,11.30
2011,07,05,00,29,11.20
2011,07,05,00,30,11.20
2011,07,05,00,31,11.20
2011,07,05,00,32,11.20
2011,07,05,00,33,11.20
2011,07,05,00,34,11.20
2011,07,05,00,35,11.20
2011,07,05,00,36,11.20
2011,07,05,00,37,11.20
2011,07,05,00,38,11.20
2011,07,05,00,39,11.20
2011,07,05,00,40,11.20
2011,07,05,00,41,11.20
2011,07,05,00,42,11.20
2011,07,05,00,43,11.10
2011,07,05,00,44,11.10
2011,07,05,00,45,11.10
2011,07,05,00,46,11.10
2011,07,05,00,47,11.10
2011,07,05,00,48,11.10
2011,07,05,00,49,11.10
2011,07,05,00,50,11.10
2011,07,05,00,51,11.00
2011,07,05,00,52,11.00
2011,07,05,00,53,11.00
2011,07,05,00,54,11.00
2011,07,05,00,55,11.00
2011,07,05,00,56,11.00
2011,07,05,00,57,10.90
2011,07,05,00,58,10.90
2011,07,05,00,59,10.90
2011,07,05,01,00,10.90
2011,07,05,01,01,10.90
2011,07,05,01,02,10.90
2011,07,05,01,03,10.90
2011,07,05,01,04,10.90
2011,07,05,01,05,10.90
2011,07,05,01,06,10.80
2011,07,05,01,07,10.80
2011,07,05,01,08,10.80
2011,07,05,01,09,10.80
2011,07,05,01,10,10.80
2011,07,05,01,11,10.80
2011,07,05,01,12,10.70
2011,07,05,01,13,10.70
2011,07,05,01,14,10.70
2011,07,05,01,15,10.70
2011,07,05,01,16,10.70
2011,07,05,01,17,10.70
2011,07,05,01,18,10.60
2011,07,05,01,19,10.60
2011,07,05,01,20,10.60
2011,07,05,01,21,10.60
2011,07,05,01,22,10.60
2011,07,05,01,23,10.60
2011,07,05,01,24,10.60
2011,07,05,01,25,10.60
2011,07,05,01,26,10.50
2011,07,05,01,27,10.50
2011,07,05,01,28,10.50
2011,07,05,01,29,10.50
2011,07,05,01,30,10.40
2011,07,05,01,31,10.40
2011,07,05,01,32,10.40
2011,07,05,01,33,10.40
2011,07,05,01,34,10.40
2011,07,05,01,35,10.40
2011,07,05,01,36,10.40
2011,07,05,01,37,10.30
2011,07,05,01,38,10.30
2011,07,05,01,39,10.30
2011,07,05,01,40,10.30
2011,07,05,01,41,10.30
2011,07,05,01,42,10.20
2011,07,05,01,43,10.20
2011,07,05,01,44,10.20
2011,07,05,01,45,10.20
2011,07,05,01,46,10.20
2011,07,05,01,47,10.20
2011,07,05,01,48,10.20
2011,07,05,01,49,10.20
2011,07,05,01,50,10.10
2011,07,05,01,51,10.10
2011,07,05,01,52,10.10
2011,07,05,01,53,10.10
2011,07,05,01,54,10.10
2011,07,05,01,55,10.10
2011,07,05,01,56,10.10
2011,07,05,01,57,10.00
2011,07,05,01,58,10.00
2011,07,05,01,59,10.00
2011,07,05,02,00,10.00
2011,07,05,02,01,10.00
2011,07,05,02,02,10.00
2011,07,05,02,03,9.90
2011,07,05,02,04,9.90
2011,07,05,02,05,9.90
2011,07,05,02,06,9.90
2011,07,05,02,07,9.90
2011,07,05,02,08,9.90
2011,07,05,02,09,9.90
2011,07,05,02,10,9.80
2011,07,05,02,11,9.80
2011,07,05,02,12,9.80
2011,07,05,02,13,9.80
2011,07,05,02,14,9.80
2011,07,05,02,15,9.80
2011,07,05,02,16,9.80
2011,07,05,02,17,9.80
2011,07,05,02,18,9.80
2011,07,05,02,19,9.80
2011,07,05,02,20,9.80
2011,07,05,02,21,9.80
2011,07,05,02,22,9.80
2011,07,05,02,23,9.70
2011,07,05,02,24,9.70
2011,07,05,02,25,9.70
2011,07,05,02,26,9.70
2011,07,05,02,27,9.70
2011,07,05,02,28,9.70
2011,07,05,02,29,9.70
2011,07,05,02,30,9.70
2011,07,05,02,31,9.70
2011,07,05,02,32,9.70
2011,07,05,02,33,9.70
2011,07,05,02,34,9.60
2011,07,05,02,35,9.60
2011,07,05,02,36,9.60
2011,07,05,02,37,9.60
2011,07,05,02,38,9.60
2011,07,05,02,39,9.60
2011,07,05,02,40,9.60
2011,07,05,02,41,9.60
2011,07,05,02,42,9.50
2011,07,05,02,43,9.50
2011,07,05,02,44,9.50
2011,07,05,02,45,9.50
2011,07,05,02,46,9.40
2011,07,05,02,47,9.40
2011,07,05,02,48,9.40
2011,07,05,02,49,9.40
2011,07,05,02,50,9.40
2011,07,05,02,51,9.40
2011,07,05,02,52,9.40
2011,07,05,02,53,9.40
2011,07,05,02,54,9.40
2011,07,05,02,55,9.40
2011,07,05,02,56,9.40
2011,07,05,02,57,9.30
2011,07,05,02,58,9.30
2011,07,05,02,59,9.30
2011,07,05,03,00,9.30
2011,07,05,03,01,9.30
2011,07,05,03,02,9.30
2011,07,05,03,03,9.30
2011,07,05,03,04,9.30
2011,07,05,03,05,9.30
2011,07,05,03,06,9.30
2011,07,05,03,07,9.20
2011,07,05,03,08,9.20
2011,07,05,03,09,9.20
2011,07,05,03,10,9.20
2011,07,05,03,11,9.20
2011,07,05,03,12,9.20
2011,07,05,03,13,9.20
2011,07,05,03,14,9.10
2011,07,05,03,15,9.10
2011,07,05,03,16,9.10
2011,07,05,03,17,9.10
2011,07,05,03,18,9.10
2011,07,05,03,19,9.10
2011,07,05,03,20,9.10
2011,07,05,03,21,9.10
2011,07,05,03,22,9.10
2011,07,05,03,23,9.10
2011,07,05,03,24,9.10
2011,07,05,03,25,9.10
2011,07,05,03,26,9.10
2011,07,05,03,27,9.10
2011,07,05,03,28,9.10
2011,07,05,03,29,9.10
2011,07,05,03,30,9.10
2011,07,05,03,31,9.10
2011,07,05,03,32,9.10
2011,07,05,03,33,9.10
2011,07,05,03,34,9.10
2011,07,05,03,35,9.10
2011,07,05,03,36,9.10
2011,07,05,03,37,9.10
2011,07,05,03,38,9.10
2011,07,05,03,39,9.10
2011,07,05,03,40,9.10
2011,07,05,03,41,9.10
2011,07,05,03,42,9.10
2011,07,05,03,43,9.10
2011,07,05,03,44,9.10
2011,07,05,03,45,9.10
2011,07,05,03,46,9.10
2011,07,05,03,47,9.10
2011,07,05,03,48,9.10
2011,07,05,03,49,9.10
2011,07,05,03,50,9.10
2011,07,05,03,51,9.10
2011,07,05,03,52,9.10
2011,07,05,03,53,9.10
2011,07,05,03,54,9.10
2011,07,05,03,55,9.10
2011,07,05,03,56,9.10
2011,07,05,03,57,9.10
2011,07,05,03,58,9.00
2011,07,05,03,59,9.00
2011,07,05,04,00,9.00
2011,07,05,04,01,9.00
2011,07,05,04,02,9.00
2011,07,05,04,03,9.00
2011,07,05,04,04,9.00
2011,07,05,04,05,9.00
2011,07,05,04,06,9.00
2011,07,05,04,07,9.00
2011,07,05,04,08,9.00
2011,07,05,04,09,9.00
2011,07,05,04,10,9.00
2011,07,05,04,11,8.90
2011,07,05,04,12,8.90
2011,07,05,04,13,8.90
2011,07,05,04,14,8.90
2011,07,05,04,15,8.90
2011,07,05,04,16,8.90
2011,07,05,04,17,8.90
2011,07,05,04,18,8.90
2011,07,05,04,19,8.90
2011,07,05,04,20,8.90
2011,07,05,04,21,8.90
2011,07,05,04,22,8.90
2011,07,05,04,23,8.90
2011,07,05,04,24,8.90
2011,07,05,04,25,8.90
2011,07,05,04,26,8.90
2011,07,05,04,27,8.90
2011,07,05,04,28,8.80
2011,07,05,04,29,8.80
2011,07,05,04,30,8.80
2011,07,05,04,31,8.80
2011,07,05,04,32,8.80
2011,07,05,04,33,8.80
2011,07,05,04,34,8.80
2011,07,05,04,35,8.70
2011,07,05,04,36,8.70
2011,07,05,04,37,8.70
2011,07,05,04,38,8.70
2011,07,05,04,39,8.70
2011,07,05,04,40,8.70
2011,07,05,04,41,8.70
2011,07,05,04,42,8.70
2011,07,05,04,43,8.70
2011,07,05,04,44,8.70
2011,07,05,04,45,8.70
2011,07,05,04,46,8.70
2011,07,05,04,47,8.70
2011,07,05,04,48,8.70
2011,07,05,04,49,8.70
2011,07,05,04,50,8.60
2011,07,05,04,51,8.60
2011,07,05,04,52,8.60
2011,07,05,04,53,8.60
2011,07,05,04,54,8.60
2011,07,05,04,55,8.60
2011,07,05,04,56,8.60
2011,07,05,04,57,8.60
2011,07,05,04,58,8.60
2011,07,05,04,59,8.60
2011,07,05,05,00,8.60
2011,07,05,05,01,8.60
2011,07,05,05,02,8.60
2011,07,05,05,03,8.60
2011,07,05,05,04,8.60
2011,07,05,05,05,8.60
2011,07,05,05,06,8.60
2011,07,05,05,07,8.60
2011,07,05,05,08,8.60
2011,07,05,05,09,8.60
2011,07,05,05,10,8.60
2011,07,05,05,11,8.60
2011,07,05,05,12,8.60
2011,07,05,05,13,8.60
2011,07,05,05,14,8.60
2011,07,05,05,15,8.50
2011,07,05,05,16,8.50
2011,07,05,05,17,8.50
2011,07,05,05,18,8.50
2011,07,05,05,19,8.50
2011,07,05,05,20,8.50
2011,07,05,05,21,8.60
2011,07,05,05,22,8.50
2011,07,05,05,23,8.50
2011,07,05,05,24,8.50
2011,07,05,05,25,8.50
2011,07,05,05,26,8.50
2011,07,05,05,27,8.50
2011,07,05,05,28,8.50
2011,07,05,05,29,8.50
2011,07,05,05,30,8.50
2011,07,05,05,31,8.50
2011,07,05,05,32,8.50
2011,07,05,05,33,8.50
2011,07,05,05,34,8.50
2011,07,05,05,35,8.50
2011,07,05,05,36,8.50
2011,07,05,05,37,8.50
2011,07,05,05,38,8.50
2011,07,05,05,39,8.50
2011,07,05,05,40,8.50
2011,07,05,05,41,8.50
2011,07,05,05,42,8.50
2011,07,05,05,43,8.50
2011,07,05,05,44,8.50
2011,07,05,05,45,8.50
2011,07,05,05,46,8.50
2011,07,05,05,47,8.50
2011,07,05,05,48,8.50
2011,07,05,05,49,8.50
2011,07,05,05,50,8.50
2011,07,05,05,51,8.50
2011,07,05,05,52,8.50
2011,07,05,05,53,8.50
2011,07,05,05,54,8.50
2011,07,05,05,55,8.50
2011,07,05,05,56,8.50
2011,07,05,05,57,8.50
2011,07,05,05,58,8.50
2011,07,05,05,59,8.50
2011,07,05,06,00,8.50
2011,07,05,06,01,8.50
2011,07,05,06,02,8.50
2011,07,05,06,03,8.50
2011,07,05,06,04,8.60
2011,07,05,06,05,8.60
2011,07,05,06,06,8.60
2011,07,05,06,07,8.60
2011,07,05,06,08,8.60
2011,07,05,06,09,8.70
2011,07,05,06,10,8.70
2011,07,05,06,11,8.70
2011,07,05,06,12,8.70
2011,07,05,06,13,8.70
2011,07,05,06,14,8.80
2011,07,05,06,15,8.80
2011,07,05,06,16,8.80
2011,07,05,06,17,8.80
2011,07,05,06,18,8.80
2011,07,05,06,19,8.80
2011,07,05,06,20,8.80
2011,07,05,06,21,8.90
2011,07,05,06,22,8.90
2011,07,05,06,23,8.90
2011,07,05,06,24,8.90
2011,07,05,06,25,8.90
2011,07,05,06,26,8.90
2011,07,05,06,27,9.00
2011,07,05,06,28,9.00
2011,07,05,06,29,9.00
2011,07,05,06,30,9.00
2011,07,05,06,31,9.10
2011,07,05,06,32,9.10
2011,07,05,06,33,9.10
2011,07,05,06,34,9.10
2011,07,05,06,35,9.20
2011,07,05,06,36,9.20
2011,07,05,06,37,9.20
2011,07,05,06,38,9.30
2011,07,05,06,39,9.30
2011,07,05,06,40,9.30
2011,07,05,06,41,9.30
2011,07,05,06,42,9.40
2011,07,05,06,43,9.40
2011,07,05,06,44,9.40
2011,07,05,06,45,9.40
2011,07,05,06,46,9.50
2011,07,05,06,47,9.50
2011,07,05,06,48,9.60
2011,07,05,06,49,9.60
2011,07,05,06,50,9.60
2011,07,05,06,51,9.70
2011,07,05,06,52,9.70
2011,07,05,06,53,9.80
2011,07,05,06,54,9.80
2011,07,05,06,55,9.80
2011,07,05,06,56,9.90
2011,07,05,06,57,10.00
2011,07,05,06,58,10.10
2011,07,05,06,59,10.10
2011,07,05,07,00,10.20
2011,07,05,07,01,10.30
2011,07,05,07,02,10.50
2011,07,05,07,03,10.60
2011,07,05,07,04,10.70
2011,07,05,07,05,10.90
2011,07,05,07,06,11.00
2011,07,05,07,07,11.10
2011,07,05,07,08,11.30
2011,07,05,07,09,11.40
2011,07,05,07,10,11.60
2011,07,05,07,11,11.70
2011,07,05,07,12,11.80
2011,07,05,07,13,12.00
2011,07,05,07,14,12.10
2011,07,05,07,15,12.20
2011,07,05,07,16,12.40
2011,07,05,07,17,12.50
2011,07,05,07,18,12.60
2011,07,05,07,19,12.80
2011,07,05,07,20,12.90
2011,07,05,07,21,13.00
2011,07,05,07,22,13.10
2011,07,05,07,23,13.20
2011,07,05,07,24,13.30
2011,07,05,07,25,13.30
2011,07,05,07,26,13.40
2011,07,05,07,27,13.50
2011,07,05,07,28,13.60
2011,07,05,07,29,13.70
2011,07,05,07,30,13.80
2011,07,05,07,31,13.90
2011,07,05,07,32,14.00
2011,07,05,07,33,14.10
2011,07,05,07,34,14.10
2011,07,05,07,35,14.20
2011,07,05,07,36,14.30
2011,07,05,07,37,14.30
2011,07,05,07,38,14.40
2011,07,05,07,39,14.50
2011,07,05,07,40,14.60
2011,07,05,07,41,14.70
2011,07,05,07,42,14.80
2011,07,05,07,43,14.90
2011,07,05,07,44,15.00
2011,07,05,07,45,15.00
2011,07,05,07,46,15.10
2011,07,05,07,47,15.20
2011,07,05,07,48,15.30
2011,07,05,07,49,15.30
2011,07,05,07,50,15.30
2011,07,05,07,51,15.30
2011,07,05,07,52,15.30
2011,07,05,07,53,15.30
2011,07,05,07,54,15.30
2011,07,05,07,55,15.30
2011,07,05,07,56,15.30
2011,07,05,07,57,15.30
2011,07,05,07,58,15.30
2011,07,05,07,59,15.30
2011,07,05,08,00,15.30
2011,07,05,08,01,15.40
2011,07,05,08,02,15.40
2011,07,05,08,03,15.50
2011,07,05,08,04,15.50
2011,07,05,08,05,15.60
2011,07,05,08,06,15.60
2011,07,05,08,07,15.70
2011,07,05,08,08,15.80
2011,07,05,08,09,15.90
2011,07,05,08,10,16.00
2011,07,05,08,11,16.10
2011,07,05,08,12,16.20
2011,07,05,08,13,16.20
2011,07,05,08,14,16.20
2011,07,05,08,15,16.20
2011,07,05,08,16,16.20
2011,07,05,08,17,16.30
2011,07,05,08,18,16.40
2011,07,05,08,19,16.50
2011,07,05,08,20,16.60
2011,07,05,08,21,16.70
2011,07,05,08,22,16.70
2011,07,05,08,23,16.80
2011,07,05,08,24,16.80
2011,07,05,08,25,16.80
2011,07,05,08,26,16.80
2011,07,05,08,27,16.90
2011,07,05,08,28,17.00
2011,07,05,08,29,17.00
2011,07,05,08,30,17.10
2011,07,05,08,31,17.10
2011,07,05,08,32,17.20
2011,07,05,08,33,17.20
2011,07,05,08,34,17.20
2011,07,05,08,35,17.20
2011,07,05,08,36,17.20
2011,07,05,08,37,17.20
2011,07,05,08,38,17.20
2011,07,05,08,39,17.20
2011,07,05,08,40,17.20
2011,07,05,08,41,17.30
2011,07,05,08,42,17.30
2011,07,05,08,43,17.40
2011,07,05,08,44,17.40
2011,07,05,08,45,17.50
2011,07,05,08,46,17.60
2011,07,05,08,47,17.60
2011,07,05,08,48,17.70
2011,07,05,08,49,17.70
2011,07,05,08,50,17.70
2011,07,05,08,51,17.70
2011,07,05,08,52,17.70
2011,07,05,08,53,17.60
2011,07,05,08,54,17.60
2011,07,05,08,55,17.70
2011,07,05,08,56,17.70
2011,07,05,08,57,17.80
2011,07,05,08,58,17.80
2011,07,05,08,59,17.90
2011,07,05,09,00,17.90
2011,07,05,09,01,18.00
2011,07,05,09,02,18.10
2011,07,05,09,03,18.20
2011,07,05,09,04,18.20
2011,07,05,09,05,18.20
2011,07,05,09,06,18.10
2011,07,05,09,07,18.10
2011,07,05,09,08,18.20
2011,07,05,09,09,18.20
2011,07,05,09,10,18.30
2011,07,05,09,11,18.30
2011,07,05,09,12,18.40
2011,07,05,09,13,18.40
2011,07,05,09,14,18.50
2011,07,05,09,15,18.50
2011,07,05,09,16,18.60
2011,07,05,09,17,18.60
2011,07,05,09,18,18.50
2011,07,05,09,19,18.50
2011,07,05,09,20,18.40
2011,07,05,09,21,18.40
2011,07,05,09,22,18.40
2011,07,05,09,23,18.40
2011,07,05,09,24,18.40
2011,07,05,09,25,18.30
2011,07,05,09,26,18.30
2011,07,05,09,27,18.20
2011,07,05,09,28,18.30
2011,07,05,09,29,18.30
2011,07,05,09,30,18.40
2011,07,05,09,31,18.50
2011,07,05,09,32,18.60
2011,07,05,09,33,18.60
2011,07,05,09,34,18.60
2011,07,05,09,35,18.60
2011,07,05,09,36,18.60
2011,07,05,09,37,18.70
2011,07,05,09,38,18.70
2011,07,05,09,39,18.80
2011,07,05,09,40,18.90
2011,07,05,09,41,18.90
2011,07,05,09,42,18.90
2011,07,05,09,43,18.90
2011,07,05,09,44,18.80
2011,07,05,09,45,18.80
2011,07,05,09,46,18.80
2011,07,05,09,47,18.80
2011,07,05,09,48,18.80
2011,07,05,09,49,18.80
2011,07,05,09,50,18.80
2011,07,05,09,51,18.90
2011,07,05,09,52,19.00
2011,07,05,09,53,19.00
2011,07,05,09,54,19.00
2011,07,05,09,55,19.10
2011,07,05,09,56,19.10
2011,07,05,09,57,19.10
2011,07,05,09,58,19.10
2011,07,05,09,59,19.10
2011,07,05,10,00,19.20
2011,07,05,10,01,19.20
2011,07,05,10,02,19.30
2011,07,05,10,03,19.40
2011,07,05,10,04,19.40
2011,07,05,10,05,19.40
2011,07,05,10,06,19.40
2011,07,05,10,07,19.40
2011,07,05,10,08,19.40
2011,07,05,10,09,19.40
2011,07,05,10,10,19.40
2011,07,05,10,11,19.40
2011,07,05,10,12,19.50
2011,07,05,10,13,19.50
2011,07,05,10,14,19.60
2011,07,05,10,15,19.60
2011,07,05,10,16,19.60
2011,07,05,10,17,19.70
2011,07,05,10,18,19.70
2011,07,05,10,19,19.80
2011,07,05,10,20,19.80
2011,07,05,10,21,19.80
2011,07,05,10,22,19.80
2011,07,05,10,23,19.80
2011,07,05,10,24,19.80
2011,07,05,10,25,19.90
2011,07,05,10,26,20.00
2011,07,05,10,27,20.00
2011,07,05,10,28,20.00
2011,07,05,10,29,20.00
2011,07,05,10,30,19.90
2011,07,05,10,31,19.90
2011,07,05,10,32,19.90
2011,07,05,10,33,20.00
2011,07,05,10,34,20.10
2011,07,05,10,35,20.10
2011,07,05,10,36,20.20
2011,07,05,10,37,20.20
2011,07,05,10,38,20.20
2011,07,05,10,39,20.20
2011,07,05,10,40,20.20
2011,07,05,10,41,20.30
2011,07,05,10,42,20.20
2011,07,05,10,43,20.20
2011,07,05,10,44,20.10
2011,07,05,10,45,20.10
2011,07,05,10,46,20.10
2011,07,05,10,47,20.10
2011,07,05,10,48,20.10
2011,07,05,10,49,20.10
2011,07,05,10,50,20.10
2011,07,05,10,51,20.10
2011,07,05,10,52,20.20
2011,07,05,10,53,20.20
2011,07,05,10,54,20.10
2011,07,05,10,55,20.10
2011,07,05,10,56,20.20
2011,07,05,10,57,20.20
2011,07,05,10,58,20.20
2011,07,05,10,59,20.20
2011,07,05,11,00,20.30
2011,07,05,11,01,20.20
2011,07,05,11,02,20.20
2011,07,05,11,03,20.30
2011,07,05,11,04,20.30
2011,07,05,11,05,20.30
2011,07,05,11,06,20.30
2011,07,05,11,07,20.30
2011,07,05,11,08,20.30
2011,07,05,11,09,20.30
2011,07,05,11,10,20.30
2011,07,05,11,11,20.30
2011,07,05,11,12,20.30
2011,07,05,11,13,20.40
2011,07,05,11,14,20.50
2011,07,05,11,15,20.60
2011,07,05,11,16,20.70
2011,07,05,11,17,20.80
2011,07,05,11,18,20.80
2011,07,05,11,19,20.90
2011,07,05,11,20,21.00
2011,07,05,11,21,21.10
2011,07,05,11,22,21.30
2011,07,05,11,23,21.30
2011,07,05,11,24,21.30
2011,07,05,11,25,21.30
2011,07,05,11,26,21.30
2011,07,05,11,27,21.30
2011,07,05,11,28,21.20
2011,07,05,11,29,21.10
2011,07,05,11,30,21.00
2011,07,05,11,31,21.00
2011,07,05,11,32,21.10
2011,07,05,11,33,21.10
2011,07,05,11,34,21.10
2011,07,05,11,35,21.10
2011,07,05,11,36,21.10
2011,07,05,11,37,21.10
2011,07,05,11,38,21.10
2011,07,05,11,39,21.10
2011,07,05,11,40,21.20
2011,07,05,11,41,21.20
2011,07,05,11,42,21.20
2011,07,05,11,43,21.00
2011,07,05,11,44,20.90
2011,07,05,11,45,20.80
2011,07,05,11,46,20.70
2011,07,05,11,47,20.70
2011,07,05,11,48,20.80
2011,07,05,11,49,20.90
2011,07,05,11,50,21.00
2011,07,05,11,51,21.00
2011,07,05,11,52,21.10
2011,07,05,11,53,21.10
2011,07,05,11,54,21.10
2011,07,05,11,55,21.20
2011,07,05,11,56,21.30
2011,07,05,11,57,21.40
2011,07,05,11,58,21.50
2011,07,05,11,59,21.50
2011,07,05,12,00,21.60
2011,07,05,12,01,21.70
2011,07,05,12,02,21.70
2011,07,05,12,03,21.80
2011,07,05,12,04,21.90
2011,07,05,12,05,21.90
2011,07,05,12,06,21.80
2011,07,05,12,07,21.80
2011,07,05,12,08,21.80
2011,07,05,12,09,21.70
2011,07,05,12,10,21.70
2011,07,05,12,11,21.70
2011,07,05,12,12,21.70
2011,07,05,12,13,21.70
2011,07,05,12,14,21.80
2011,07,05,12,15,21.80
2011,07,05,12,16,21.90
2011,07,05,12,17,21.90
2011,07,05,12,18,21.90
2011,07,05,12,19,21.90
2011,07,05,12,20,22.00
2011,07,05,12,21,22.00
2011,07,05,12,22,22.00
2011,07,05,12,23,21.90
2011,07,05,12,24,21.80
2011,07,05,12,25,21.70
2011,07,05,12,26,21.80
2011,07,05,12,27,21.80
2011,07,05,12,28,21.90
2011,07,05,12,29,22.00
2011,07,05,12,30,22.10
2011,07,05,12,31,22.20
2011,07,05,12,32,22.30
2011,07,05,12,33,22.30
2011,07,05,12,34,22.20
2011,07,05,12,35,22.10
2011,07,05,12,36,22.00
2011,07,05,12,37,22.00
2011,07,05,12,38,22.00
2011,07,05,12,39,22.00
2011,07,05,12,40,22.00
2011,07,05,12,41,22.00
2011,07,05,12,42,22.10
2011,07,05,12,43,22.10
2011,07,05,12,44,22.20
2011,07,05,12,45,22.20
2011,07,05,12,46,22.30
2011,07,05,12,47,22.30
2011,07,05,12,48,22.30
2011,07,05,12,49,22.30
2011,07,05,12,50,22.40
2011,07,05,12,51,22.40
2011,07,05,12,52,22.50
2011,07,05,12,53,22.50
2011,07,05,12,54,22.50
2011,07,05,12,55,22.60
2011,07,05,12,56,22.70
2011,07,05,12,57,22.70
2011,07,05,12,58,22.70
2011,07,05,12,59,22.60
2011,07,05,13,00,22.60
2011,07,05,13,01,22.50
2011,07,05,13,02,22.40
2011,07,05,13,03,22.30
2011,07,05,13,04,22.30
2011,07,05,13,05,22.30
2011,07,05,13,06,22.30
2011,07,05,13,07,22.40
2011,07,05,13,08,22.40
2011,07,05,13,09,22.60
2011,07,05,13,10,22.70
2011,07,05,13,11,22.70
2011,07,05,13,12,22.70
2011,07,05,13,13,22.70
2011,07,05,13,14,22.60
2011,07,05,13,15,22.50
2011,07,05,13,16,22.50
2011,07,05,13,17,22.50
2011,07,05,13,18,22.60
2011,07,05,13,19,22.80
2011,07,05,13,20,22.90
2011,07,05,13,21,23.10
2011,07,05,13,22,23.20
2011,07,05,13,23,23.20
2011,07,05,13,24,23.20
2011,07,05,13,25,23.10
2011,07,05,13,26,23.00
2011,07,05,13,27,23.00
2011,07,05,13,28,22.90
2011,07,05,13,29,22.90
2011,07,05,13,30,22.90
2011,07,05,13,31,22.90
2011,07,05,13,32,23.00
2011,07,05,13,33,23.00
2011,07,05,13,34,23.20
2011,07,05,13,35,23.30
2011,07,05,13,36,23.30
2011,07,05,13,37,23.30
2011,07,05,13,38,23.30
2011,07,05,13,39,23.30
2011,07,05,13,40,23.30
2011,07,05,13,41,23.30
2011,07,05,13,42,23.30
2011,07,05,13,43,23.20
2011,07,05,13,44,23.20
2011,07,05,13,45,23.30
2011,07,05,13,46,23.20
2011,07,05,13,47,23.20
2011,07,05,13,48,23.20
2011,07,05,13,49,23.20
2011,07,05,13,50,23.20
2011,07,05,13,51,23.20
2011,07,05,13,52,23.20
2011,07,05,13,53,23.20
2011,07,05,13,54,23.20
2011,07,05,13,55,23.20
2011,07,05,13,56,23.20
2011,07,05,13,57,23.30
2011,07,05,13,58,23.30
2011,07,05,13,59,23.30
2011,07,05,14,00,23.30
2011,07,05,14,01,23.30
2011,07,05,14,02,23.30
2011,07,05,14,03,23.30
2011,07,05,14,04,23.20
2011,07,05,14,05,23.20
2011,07,05,14,06,23.30
2011,07,05,14,07,23.40
2011,07,05,14,08,23.60
2011,07,05,14,09,23.70
2011,07,05,14,10,23.80
2011,07,05,14,11,23.80
2011,07,05,14,12,23.90
2011,07,05,14,13,23.90
2011,07,05,14,14,23.90
2011,07,05,14,15,23.90
2011,07,05,14,16,23.90
2011,07,05,14,17,23.90
2011,07,05,14,18,23.90
2011,07,05,14,19,23.90
2011,07,05,14,20,23.80
2011,07,05,14,21,23.70
2011,07,05,14,22,23.60
2011,07,05,14,23,23.50
2011,07,05,14,24,23.40
2011,07,05,14,25,23.40
2011,07,05,14,26,23.30
2011,07,05,14,27,23.30
2011,07,05,14,28,23.40
2011,07,05,14,29,23.40
2011,07,05,14,30,23.50
2011,07,05,14,31,23.60
2011,07,05,14,32,23.70
2011,07,05,14,33,23.80
2011,07,05,14,34,23.90
2011,07,05,14,35,23.90
2011,07,05,14,36,23.90
2011,07,05,14,37,23.90
2011,07,05,14,38,23.80
2011,07,05,14,39,23.80
2011,07,05,14,40,23.80
2011,07,05,14,41,23.80
2011,07,05,14,42,23.80
2011,07,05,14,43,23.80
2011,07,05,14,44,23.90
2011,07,05,14,45,23.90
2011,07,05,14,46,24.00
2011,07,05,14,47,24.10
2011,07,05,14,48,24.30
2011,07,05,14,49,24.50
2011,07,05,14,50,24.60
2011,07,05,14,51,24.70
2011,07,05,14,52,24.80
2011,07,05,14,53,24.90
2011,07,05,14,54,25.10
2011,07,05,14,55,25.20
2011,07,05,14,56,25.30
2011,07,05,14,57,25.20
2011,07,05,14,58,25.10
2011,07,05,14,59,25.00
2011,07,05,15,00,25.00
2011,07,05,15,01,25.10
2011,07,05,15,02,25.20
2011,07,05,15,03,25.20
2011,07,05,15,04,25.20
2011,07,05,15,05,25.30
2011,07,05,15,06,25.40
2011,07,05,15,07,25.40
2011,07,05,15,08,25.50
2011,07,05,15,09,25.60
2011,07,05,15,10,25.60
2011,07,05,15,11,25.50
2011,07,05,15,12,25.40
2011,07,05,15,13,25.40
2011,07,05,15,14,25.30
2011,07,05,15,15,25.30
2011,07,05,15,16,25.40
2011,07,05,15,17,25.40
2011,07,05,15,18,25.50
2011,07,05,15,19,25.60
2011,07,05,15,20,25.60
2011,07,05,15,21,25.60
2011,07,05,15,22,25.70
2011,07,05,15,23,25.70
2011,07,05,15,24,25.70
2011,07,05,15,25,25.70
2011,07,05,15,26,25.70
2011,07,05,15,27,25.60
2011,07,05,15,28,25.60
2011,07,05,15,29,25.50
2011,07,05,15,30,25.40
2011,07,05,15,31,25.40
2011,07,05,15,32,25.40
2011,07,05,15,33,25.30
2011,07,05,15,34,25.20
2011,07,05,15,35,25.20
2011,07,05,15,36,25.10
2011,07,05,15,37,25.10
2011,07,05,15,38,25.10
2011,07,05,15,39,25.10
2011,07,05,15,40,25.10
2011,07,05,15,41,25.10
2011,07,05,15,42,25.00
2011,07,05,15,43,25.00
2011,07,05,15,44,25.00
2011,07,05,15,45,24.90
2011,07,05,15,46,24.80
2011,07,05,15,47,24.70
2011,07,05,15,48,24.70
2011,07,05,15,49,24.70
2011,07,05,15,50,24.60
2011,07,05,15,51,24.60
2011,07,05,15,52,24.50
2011,07,05,15,53,24.50
2011,07,05,15,54,24.40
2011,07,05,15,55,24.40
2011,07,05,15,56,24.30
2011,07,05,15,57,24.30
2011,07,05,15,58,24.30
2011,07,05,15,59,24.20
2011,07,05,16,00,24.10
2011,07,05,16,01,24.00
2011,07,05,16,02,24.00
2011,07,05,16,03,23.90
2011,07,05,16,04,23.90
2011,07,05,16,05,23.80
2011,07,05,16,06,23.80
2011,07,05,16,07,23.80
2011,07,05,16,08,23.80
2011,07,05,16,09,23.80
2011,07,05,16,10,23.80
2011,07,05,16,11,23.80
2011,07,05,16,12,23.80
2011,07,05,16,13,23.80
2011,07,05,16,14,23.80
2011,07,05,16,15,23.80
2011,07,05,16,16,23.90
2011,07,05,16,17,23.90
2011,07,05,16,18,23.90
2011,07,05,16,19,23.90
2011,07,05,16,20,23.90
2011,07,05,16,21,23.90
2011,07,05,16,22,23.90
2011,07,05,16,23,23.80
2011,07,05,16,24,23.90
2011,07,05,16,25,23.90
2011,07,05,16,26,24.00
2011,07,05,16,27,24.00
2011,07,05,16,28,24.10
2011,07,05,16,29,24.10
2011,07,05,16,30,24.00
2011,07,05,16,31,24.00
2011,07,05,16,32,24.10
2011,07,05,16,33,24.20
2011,07,05,16,34,24.20
2011,07,05,16,35,24.30
2011,07,05,16,36,24.30
2011,07,05,16,37,24.40
2011,07,05,16,38,24.40
2011,07,05,16,39,24.50
2011,07,05,16,40,24.50
2011,07,05,16,41,24.60
2011,07,05,16,42,24.60
2011,07,05,16,43,24.60
2011,07,05,16,44,24.60
2011,07,05,16,45,24.70
2011,07,05,16,46,24.70
2011,07,05,16,47,24.70
2011,07,05,16,48,24.70
2011,07,05,16,49,24.60
2011,07,05,16,50,24.50
2011,07,05,16,51,24.40
2011,07,05,16,52,24.30
2011,07,05,16,53,24.30
2011,07,05,16,54,24.20
2011,07,05,16,55,24.20
2011,07,05,16,56,24.20
2011,07,05,16,57,24.20
2011,07,05,16,58,24.20
2011,07,05,16,59,24.20
2011,07,05,17,00,24.20
2011,07,05,17,01,24.20
2011,07,05,17,02,24.20
2011,07,05,17,03,24.30
2011,07,05,17,04,24.30
2011,07,05,17,05,24.30
2011,07,05,17,06,24.30
2011,07,05,17,07,24.40
2011,07,05,17,08,24.40
2011,07,05,17,09,24.40
2011,07,05,17,10,24.30
2011,07,05,17,11,24.20
2011,07,05,17,12,24.20
2011,07,05,17,13,24.10
2011,07,05,17,14,24.00
2011,07,05,17,15,24.00
2011,07,05,17,16,23.90
2011,07,05,17,17,23.80
2011,07,05,17,18,23.80
2011,07,05,17,19,23.80
2011,07,05,17,20,23.80
2011,07,05,17,21,23.80
2011,07,05,17,22,23.80
2011,07,05,17,23,23.80
2011,07,05,17,24,23.80
2011,07,05,17,25,23.80
2011,07,05,17,26,23.80
2011,07,05,17,27,23.80
2011,07,05,17,28,23.80
2011,07,05,17,29,23.70
2011,07,05,17,30,23.70
2011,07,05,17,31,23.70
2011,07,05,17,32,23.70